Hourly Weather Roundup
Issued by NWS Central Illinois

Home | Current Version | Previous Version | Text Only | Print | Product List | Glossary On
Versions: 1 2 3 4 5 6 7 8 9 10 11 12 13 14 15 16 17 18 19 20 21 22 23 24 25 26 27 28 29 30 31 32 33 34 35 36 37 38 39 40 41 42 43 44 45 46 47 48 49 50
000
NZUS43 KILX 032110
HWRILX

AREA WEATHER ROUNDUP
NATIONAL WEATHER SERVICE, LINCOLN IL
400 PM CDT WED JUN 03 2015


CITY           SKY/WX    TMP DP  RH WIND       PRES   REMARKS
BLOOMINGTON    MOSUNNY   76  59  55 S10       30.02S
CHAMPAIGN      MOSUNNY   77  55  46 S8        30.01F
DANVILLE       SUNNY     73  53  49 SE6       30.00F HAZE
DECATUR        SUNNY     76  57  51 S9G17     30.01S
EFFINGHAM      MOSUNNY   74  56  52 E3        30.03F
FLORA          SUNNY     73  58  59 CALM      30.02F
GALESBURG      SUNNY     76  60  58 S10G20    29.95F
JACKSONVILLE   PTSUNNY   74  62  65 S10       29.98F
LACON          MOSUNNY   76  57  51 S8G16     29.97F
LAWRENCEVILLE  PTSUNNY   72  55  55 SE5       30.03F
LITCHFIELD     MOSUNNY   73  60  63 S10       30.01F
$$


CITY           SKY/WX    TMP DP  RH WIND       PRES   REMARKS
LINCOLN        PTSUNNY   76  58  53 S8        29.97F
MACOMB         MOSUNNY   75  60  60 S15       29.97F
MATTOON        SUNNY     73  58  59 SE6       30.01F
MT CARMEL AP   MOSUNNY   77  54  44 E3        30.03S
OLNEY-NOBLE AP MOSUNNY   72  59  64 CALM      30.02F
PARIS          SUNNY     73  55  52 CALM      30.04F
PEORIA         CLOUDY    77  57  50 S13       29.97F
PONTIAC        MOSUNNY   78  60  53 S6        30.01R
RANTOUL        SUNNY     78  56  47 SE3       30.00F
ROBINSON       SUNNY     73  55  54 CALM      30.05S
SPRINGFIELD    PTSUNNY   76  59  55 S12       29.99F
TAYLORVILLE    MOSUNNY   73  59  60 SW10      30.01F
$$

...REGIONAL REPORTS...


CITY           SKY/WX    TMP DP  RH WIND       PRES   REMARKS
CHICAGO O`HARE PTSUNNY   75  55  49 S10       29.99F
KANKAKEE       SUNNY     76  57  51 SE8       30.01F
MOLINE         MOSUNNY   78  59  51 S14       29.93F
MOUNT VERNON   SUNNY     75  57  53 CALM      30.02F
PITTSFIELD     CLOUDY    71  62  73 S12       29.98F
QUINCY         PTSUNNY   71  62  73 S14       29.93F
ROCKFORD       PTSUNNY   78  56  46 S15       29.98F
$$


CITY           SKY/WX    TMP DP  RH WIND       PRES   REMARKS
BURLINGTON     PTSUNNY   73  62  68 S14       29.93F
CEDAR RAPIDS   CLOUDY    76  63  64 S16       29.90S
DES MOINES     CLOUDY    76  63  64 W8        29.90F
KIRKSVILLE     CLOUDY    70  65  84 SE10      29.92R
OTTUMWA        CLOUDY    69  64  84 S8        29.92R
ST LOUIS       CLOUDY    77  59  53 SW6       30.00F
$$


CITY           SKY/WX    TMP DP  RH WIND       PRES   REMARKS
TERRE HAUTE    MOSUNNY   71  56  58 CALM      30.04S
EVANSVILLE     MOSUNNY   74  57  55 NE6       30.02F
INDIANAPOLIS   PTSUNNY   69  54  58 SE12      30.03F
LAFAYETTE      SUNNY     73  55  53 S6        30.03S
MADISON        CLOUDY    75  56  51 S12G20    29.95F
MILWAUKEE      PTSUNNY   65  50  58 SE14      30.01F
$$




USA.gov is the U.S. government's official web portal to all federal, state and local government web resources and services.